Voltar ao catálogo

STARLINK-5650

AtivoComunicaçõesVLEO
NORAD 55475·PAYLOAD·🇺🇸 United States

Lançado Feb 2, 2023 de Cape Canaveral Space Force Station

Loading…

Próximas Passagens (próximas 24 horas)

TLE

AtualizadoSource: CelesTrak SupGP

Época: Sep 14, 2026, 22:25 UTC

1 55475C 23015AC  26257.93451389 -.00033698  00000+0 -12212-2 0  2578
2 55475  43.0034 340.1381 0001586 280.9143  38.8032 15.27578046    19

Acompanhe STARLINK-5650 em tempo real com AllMySat

Download on the App Store